Location: Unspecified
(42.0334°N, 93.6656°W)
Time: 13:31:16
(UTC-05:00)

Amateur Radio Satellites - All Passes

Search period start: 30 May 2015 13:01
Search period end: 31 May 2015 13:01
Location: Unspecified, 42.0334°N, 93.6656°W

Satellite Date Start Highest point End Downlink Frequencies (MHz)
Time Altitude Azimuth
AISAT 30 May 13:07:20 13:11:18 30° 291° (WNW) 13:15:10 437.250
ITAMSAT 1 30 May 13:24:41 13:27:36 16° 61° (ENE) 13:30:44 435.822/435.867
UKube-1 30 May 13:29:01 13:30:31 11° 298° (WNW) 13:31:47 .
SO-50 30 May 13:29:15 13:30:51 11° 252° (WSW) 13:32:09 436.795
DANDE 30 May 13:45:41 13:53:15 78° 282° (WNW) 14:01:54 436.750
CUSAT 1 30 May 13:51:03 13:58:41 59° 286° (WNW) 14:06:54 437.405
CUBEBUG 1 30 May 13:58:21 14:01:26 18° 295° (WNW) 14:04:23 437.445
ITUPSAT 1 30 May 13:59:25 14:02:31 17° 91° (E) 14:05:47 437.325
BEESAT 30 May 14:04:20 14:07:45 20° 92° (E) 14:11:19 436.000
GONETS M04 30 May 14:12:13 14:20:59 65° 282° (WNW) 14:29:48
SWISSCUBE 30 May 14:13:03 14:17:03 26° 94° (E) 14:21:07 437.505
SPROUT 30 May 14:21:27 14:25:18 31° 290° (WNW) 14:29:05 437.525
Gurwin Techsat 1B 30 May 14:22:37 14:27:39 48° 71° (ENE) 14:32:47 435.225
TISAT 1 30 May 14:29:24 14:33:19 34° 289° (WNW) 14:37:09 437.305
O/OREOS (USA 219) 30 May 14:36:46 14:39:55 19° 102° (ESE) 14:43:12 437.305
HORYU 2 30 May 14:37:50 14:38:01 10° 61° (ENE) 14:38:28 437.375
Oscar 19 30 May 14:39:17 14:44:04 35° 264° (W) 14:48:48 437.125/150
RS-15 30 May 14:41:07 14:49:46 24° 13° (NNE) 14:58:51 29.354- 29.394
Cosmos 2499 30 May 14:48:46 14:56:15 47° 91° (E) 15:03:20 435.465 / 435.565
ITAMSAT 1 30 May 15:01:25 15:06:34 72° 257° (WSW) 15:11:47 435.822/435.867
AO-7 30 May 15:01:28 15:08:33 34° 58° (ENE) 15:15:48 29.400- 29.500
JAS-2 30 May 15:12:24 15:17:47 31° 68° (ENE) 15:22:47 435.910
DANDE 30 May 15:32:40 15:38:11 19° 304° (NW) 15:43:35 436.750
ITUPSAT 1 30 May 15:36:06 15:40:45 51° 288° (WNW) 15:45:23 437.325
STARS 30 May 15:36:36 15:39:44 19° 92° (E) 15:42:58 437.465
CUSAT 1 30 May 15:39:27 15:43:26 14° 308° (NW) 15:46:57 437.405
BEESAT 30 May 15:41:18 15:45:51 44° 289° (WNW) 15:50:22 436.000
SWISSCUBE 30 May 15:50:38 15:54:58 34° 291° (WNW) 15:59:13 437.505
Gurwin Techsat 1B 30 May 16:03:49 16:07:57 22° 268° (W) 16:11:57 435.225
HORYU 2 30 May 16:09:33 16:14:02 89° 238° (WSW) 16:18:32 437.375
O/OREOS (USA 219) 30 May 16:14:48 16:19:05 41° 298° (WNW) 16:23:21 437.305
GONETS M04 30 May 16:15:58 16:20:08 13° 307° (NW) 16:23:41
KKS-1 30 May 16:17:38 16:22:08 86° 103° (ESE) 16:26:35 437.445
BEESAT 3 30 May 16:27:20 16:28:50 12° 110° (ESE) 16:30:32 437.485
MOZHAYETS 4 30 May 16:40:34 16:42:32 13° 88° (E) 16:44:45
Cosmos 2499 30 May 16:42:27 16:49:36 34° 289° (WNW) 16:56:12 435.465 / 435.565
AO-7 30 May 16:52:49 17:00:59 60° 257° (WSW) 17:09:12 29.400- 29.500
RS-15 30 May 16:54:39 17:05:48 52° 44° (NE) 17:17:31 29.354- 29.394
JAS-2 30 May 16:56:41 17:02:50 42° 262° (W) 17:08:18 435.910
STARS 30 May 17:12:14 17:16:23 39° 289° (WNW) 17:20:28 437.465
BEESAT 2 30 May 17:19:09 17:22:53 35° 116° (ESE) 17:26:42 435.950
AIST 2 30 May 17:36:24 17:38:55 16° 111° (ESE) 17:41:36 435.215
CUTE-I 30 May 17:44:33 17:48:54 27° 66° (ENE) 17:53:23 437.470
YUBILEINY 30 May 17:56:27 18:04:19 37° 70° (ENE) 18:12:16 435.215
KKS-1 30 May 17:57:13 17:58:09 10° 299° (WNW) 17:58:50 437.445
BEESAT 3 30 May 18:02:17 18:06:20 65° 305° (NW) 18:10:27 437.485
Cosmos 2491 30 May 18:05:10 18:10:35 19° 79° (E) 18:16:30 435.465 / 435.565
Cubesat XI-IV 30 May 18:05:43 18:10:39 42° 69° (ENE) 18:15:40 437.490
MOZHAYETS 4 30 May 18:15:44 18:20:16 63° 286° (WNW) 18:24:47
CUBESAT XI-V 30 May 18:30:01 18:32:46 16° 89° (E) 18:35:43 437.345
BEESAT 2 30 May 18:57:35 19:01:03 25° 314° (NW) 19:04:31 435.950
HO-68 30 May 18:58:51 19:01:58 14° 51° (NE) 19:05:27 435.675
RS-15 30 May 19:07:18 19:18:32 55° 247° (WSW) 19:30:03 29.354- 29.394
AIST 2 30 May 19:12:56 19:17:07 54° 307° (NW) 19:21:20 435.215
CUTE-I 30 May 19:23:50 19:28:50 40° 263° (W) 19:33:50 437.470
AIST 1 30 May 19:34:26 19:35:38 11° 85° (E) 19:37:06
PRISM 30 May 19:42:21 19:46:10 34° 97° (E) 19:50:01 437.425
BEESAT 3 30 May 19:44:26 19:45:11 10° 326° (NW) 19:45:48 437.485
GOMX 1 30 May 19:45:57 19:50:04 24° 65° (ENE) 19:54:27 467.674
Cubesat XI-IV 30 May 19:46:32 19:50:57 25° 267° (W) 19:55:17 437.490
STRAND 1 30 May 19:48:43 19:53:31 39° 97° (E) 19:58:21 437.568
YUBILEINY 30 May 19:53:08 20:01:25 50° 270° (W) 20:09:36 435.215
Cosmos 2491 30 May 19:57:35 20:06:25 87° 278° (W) 20:15:20 435.465 / 435.565
BRITE-PL 30 May 20:03:29 20:08:32 50° 72° (ENE) 20:13:58 437.365/2234.400
CUBESAT XI-V 30 May 20:06:00 20:10:36 55° 287° (WNW) 20:15:12 437.345
Cosmos 2504 30 May 20:22:16 20:28:15 29° 68° (ENE) 20:34:25 435.465 / 435.565
DOVE 4 30 May 20:25:46 20:30:28 36° 69° (ENE) 20:35:20 437.250
HO-68 30 May 20:41:26 20:48:31 66° 70° (ENE) 20:55:39 435.675
CANX-2 30 May 20:52:59 20:57:11 63° 75° (ENE) 21:01:24 2200.000
CUTE 1.7 + AOD 2 30 May 20:55:53 21:00:04 61° 75° (ENE) 21:04:16 437.475
AIST 1 30 May 21:08:35 21:12:48 59° 280° (W) 21:17:05
CINEMA 3 30 May 21:09:57 21:14:44 47° 72° (ENE) 21:19:34 145.822/145.860
SEEDS 30 May 21:11:47 21:15:59 76° 76° (ENE) 21:20:12 437.485
ZACube-1 30 May 21:18:01 21:21:06 19° 66° (ENE) 21:24:19 437.345
COMPASS 1 30 May 21:18:12 21:22:22 72° 76° (ENE) 21:26:32 437.405
PRISM 30 May 21:18:17 21:21:26 21° 293° (WNW) 21:24:29 437.425
Oscar 11 30 May 21:20:00 21:23:45 30° 70° (ENE) 21:27:34 145.826/435.025
GOMX 1 30 May 21:22:47 21:27:51 48° 263° (W) 21:33:09 467.674
M-CUBED/EXP-1 PRIME 30 May 21:23:22 21:26:34 48° 291° (WNW) 21:29:47 437.505
DELFI C3 30 May 21:26:27 21:29:41 24° 69° (ENE) 21:32:59 145.870
AAUSAT CUBESAT 2 30 May 21:26:40 21:30:49 77° 76° (ENE) 21:34:59 437.432
AUBIESAT-1 30 May 21:27:24 21:30:37 50° 291° (WNW) 21:33:53 437.475
DX 1 30 May 21:28:05 21:29:20 11° 62° (ENE) 21:30:49 434.975-435.025
STRAND 1 30 May 21:28:17 21:32:35 27° 294° (WNW) 21:36:48 437.568
CUBEBUG 2 30 May 21:33:29 21:37:55 41° 71° (ENE) 21:42:22 437.445
BRITE-PL 30 May 21:43:18 21:47:25 22° 271° (W) 21:51:34 437.365/2234.400
ISS 30 May 21:49:51 21:52:18 20° 134° (SE) 21:54:48 145.825
VELOX 1 30 May 21:58:20 21:59:59 12° 62° (ENE) 22:01:50 145.980
Cosmos 2491 30 May 21:58:44 22:04:52 19° 301° (WNW) 22:10:35 435.465 / 435.565
DOVE 4 30 May 22:03:40 22:08:15 30° 267° (W) 22:12:52 437.250
FUNcube-1 30 May 22:10:10 22:14:41 60° 74° (ENE) 22:19:09 145.935
50 SAT 30 May 22:10:35 22:12:49 15° 66° (ENE) 22:15:13 437.505
UWE-3 30 May 22:11:31 22:16:12 81° 75° (ENE) 22:20:52 435.000/436.395/437.385
HUMSAT D 30 May 22:12:27 22:16:10 29° 70° (ENE) 22:19:55 437.325/437.525
Cosmos 2504 30 May 22:15:06 22:22:00 51° 269° (W) 22:28:54 435.465 / 435.565
ESTCUBE 1 30 May 22:18:09 22:19:38 12° 62° (ENE) 22:21:21 437.505/2401.250
GONETS M04 30 May 22:27:56 22:31:39 14° 53° (NE) 22:35:57
AISAT 30 May 22:29:17 22:32:56 26° 68° (ENE) 22:36:41 437.250
HO-68 30 May 22:31:11 22:36:52 24° 269° (W) 22:42:20 435.675
CANX-2 30 May 22:32:10 22:33:37 11° 272° (W) 22:34:48 2200.000
CUTE 1.7 + AOD 2 30 May 22:34:52 22:36:28 12° 272° (W) 22:37:50 437.475
UKube-1 30 May 22:45:33 22:49:50 68° 74° (ENE) 22:54:10 .
DANDE 30 May 22:47:16 22:52:08 19° 56° (NE) 22:56:36 436.750
CINEMA 3 30 May 22:48:20 22:52:11 21° 269° (W) 22:55:54 145.822/145.860
CUSAT 1 30 May 22:49:34 22:54:34 22° 59° (ENE) 22:58:55 437.405
ZACube-1 30 May 22:52:43 22:57:10 47° 262° (W) 23:01:34 437.345
Oscar 11 30 May 22:56:23 22:59:58 24° 266° (W) 23:03:29 145.826/435.025
DX 1 30 May 23:00:40 23:05:01 77° 257° (WSW) 23:09:26 434.975-435.025
DELFI C3 30 May 23:01:17 23:04:44 26° 265° (W) 23:08:07 145.870
TIGRISAT 30 May 23:04:26 23:07:42 21° 92° (E) 23:11:00 435.000
CUBEBUG 2 30 May 23:11:02 23:14:46 22° 268° (W) 23:18:22 437.445
CUBEBUG 1 30 May 23:17:36 23:21:40 40° 71° (ENE) 23:25:48 437.445
QB50P2 30 May 23:17:58 23:20:06 14° 89° (E) 23:22:26 145.880/145.840
ISS 30 May 23:25:22 23:28:31 49° 330° (NNW) 23:31:42 145.825
UNISAT 6 30 May 23:26:15 23:30:18 37° 97° (E) 23:34:18 437.425
DUCHIFAT 1 30 May 23:27:00 23:29:40 17° 91° (E) 23:32:27 145.980
POPSAT HIP 1 30 May 23:28:33 23:31:24 18° 91° (E) 23:34:22 437.405
BUGSAT 1 30 May 23:31:14 23:32:59 13° 88° (E) 23:34:57 437.445
VELOX 1 30 May 23:31:33 23:35:59 74° 258° (WSW) 23:40:28 145.980
SPROUT 30 May 23:40:41 23:43:49 20° 67° (ENE) 23:47:05 437.525
50 SAT 30 May 23:43:23 23:47:13 44° 261° (W) 23:51:02 437.505
TISAT 1 30 May 23:47:20 23:50:07 18° 66° (ENE) 23:53:02 437.305
HUMSAT D 30 May 23:48:18 23:51:55 25° 266° (W) 23:55:26 437.325/437.525
FUNcube-1 30 May 23:49:01 23:51:26 14° 271° (W) 23:53:37 145.935
ESTCUBE 1 30 May 23:51:28 23:55:57 77° 258° (WSW) 00:00:28 437.505/2401.250
UWE-3 30 May 23:52:25 23:53:22 10° 274° (W) 23:54:00 435.000/436.395/437.385
AISAT 31 May 00:05:26 00:09:25 31° 264° (W) 00:13:24 437.250
ANTELSAT 31 May 00:09:33 00:13:54 71° 285° (WNW) 00:18:09 437.575/2403.000
QB50P1 31 May 00:11:06 00:15:18 53° 100° (E) 00:19:28 145.935-145.965
POLYITAN 1 31 May 00:15:33 00:19:48 60° 101° (E) 00:23:59 437.675
GONETS M04 31 May 00:21:59 00:30:44 67° 78° (ENE) 00:39:24
UKube-1 31 May 00:25:13 00:26:31 11° 272° (W) 00:27:34 .
DANDE 31 May 00:29:14 00:36:49 84° 262° (W) 00:42:32 436.750
CUSAT 1 31 May 00:31:27 00:38:10 61° 266° (W) 00:43:13 437.405
PCSat 31 May 00:37:49 00:43:12 75° 118° (ESE) 00:48:40 145.827
VERMONT LUNAR 31 May 00:40:14 00:43:02 26° 158° (SSE) 00:45:49 437.305
TIGRISAT 31 May 00:40:37 00:44:35 34° 290° (WNW) 00:48:25 435.000
Cosmos 2499 31 May 00:40:45 00:44:03 14° 59° (ENE) 00:47:48 435.465 / 435.565
NANOSAT C BR1 31 May 00:40:47 00:45:03 72° 285° (WNW) 00:49:15 145.865
BEESAT 3 31 May 00:44:19 00:46:00 12° 37° (NE) 00:47:48 437.485
O/OREOS (USA 219) 31 May 00:44:57 00:49:10 40° 61° (ENE) 00:53:25 437.305
QB50P2 31 May 00:52:12 00:56:23 51° 287° (WNW) 01:00:30 145.880/145.840
CUBEBUG 1 31 May 00:55:03 00:58:14 19° 269° (W) 01:01:19 437.445
DUCHIFAT 1 31 May 01:01:41 01:05:44 43° 288° (WNW) 01:09:44 145.980
ISS 31 May 01:03:16 01:05:31 17° 350° (N) 01:07:45 145.825
POPSAT HIP 1 31 May 01:03:27 01:07:29 40° 288° (WNW) 01:11:27 437.405
UNISAT 6 31 May 01:03:38 01:06:52 20° 294° (WNW) 01:09:57 437.425
BUGSAT 1 31 May 01:04:41 01:08:54 57° 287° (WNW) 01:13:02 437.445
ITUPSAT 1 31 May 01:06:44 01:10:18 22° 66° (ENE) 01:13:59 437.325
BEESAT 31 May 01:11:17 01:15:04 25° 67° (ENE) 01:18:57 436.000
SPROUT 31 May 01:15:39 01:19:41 37° 263° (W) 01:23:44 437.525
SWISSCUBE 31 May 01:20:04 01:24:14 32° 69° (ENE) 01:28:29 437.505
TISAT 1 31 May 01:21:31 01:25:35 43° 262° (W) 01:29:41 437.305
BEESAT 2 31 May 01:37:55 01:41:27 27° 47° (NE) 01:44:59 435.950
QB50P1 31 May 01:48:17 01:50:46 15° 296° (WNW) 01:53:06 145.935-145.965
POLYITAN 1 31 May 01:53:07 01:55:14 13° 296° (WNW) 01:57:11 437.675
AIST 2 31 May 01:56:50 01:59:23 16° 39° (NE) 02:02:02 435.215
SO-50 31 May 02:01:17 02:05:10 27° 113° (ESE) 02:09:14 436.795
PHONESAT 2.4 31 May 02:01:55 02:05:02 30° 159° (SSE) 02:08:10 2401.200-2431.200
DANDE 31 May 02:15:11 02:18:32 13° 284° (WNW) 02:21:10 436.750
VERMONT LUNAR 31 May 02:16:44 02:19:57 63° 174° (S) 02:23:08 437.305
GONETS M04 31 May 02:19:55 02:26:57 27° 277° (W) 02:33:37
BEESAT 3 31 May 02:20:35 02:24:41 85° 57° (ENE) 02:28:42 437.485
PCSat 31 May 02:23:17 02:27:17 20° 318° (NW) 02:31:10 145.827
O/OREOS (USA 219) 31 May 02:25:04 02:28:21 20° 258° (WSW) 02:31:30 437.305
Cosmos 2499 31 May 02:31:27 02:38:32 83° 81° (E) 02:45:49 435.465 / 435.565
STARS 31 May 02:34:12 02:37:18 19° 66° (ENE) 02:40:32 437.465
Gurwin Techsat 1B 31 May 02:39:19 02:42:50 18° 90° (E) 02:46:33 435.225
ISS 31 May 02:40:35 02:42:50 17° 10° (N) 02:45:06 145.825
ITUPSAT 1 31 May 02:43:27 02:47:58 41° 262° (W) 02:52:28 437.325
BEESAT 31 May 02:48:22 02:52:46 36° 263° (W) 02:57:09 436.000
Oscar 19 31 May 02:49:51 02:55:02 80° 103° (ESE) 03:00:10 437.125/150
SWISSCUBE 31 May 02:58:04 03:02:08 27° 266° (W) 03:06:08 437.505
ITAMSAT 1 31 May 03:13:58 03:18:51 39° 97° (E) 03:23:45 435.822/435.867
KKS-1 31 May 03:15:53 03:20:22 82° 76° (ENE) 03:24:54 437.445
BEESAT 2 31 May 03:15:54 03:19:33 31° 245° (WSW) 03:23:06 435.950
AIST 2 31 May 03:34:17 03:38:30 73° 239° (WSW) 03:42:38 435.215
PHONESAT 2.4 31 May 03:39:26 03:42:54 66° 175° (S) 03:46:22 2401.200-2431.200
SO-50 31 May 03:41:06 03:45:33 40° 311° (NW) 03:50:09 436.795
MOZHAYETS 4 31 May 03:43:22 03:45:37 14° 64° (ENE) 03:48:05
VERMONT LUNAR 31 May 03:53:51 03:57:01 54° 190° (S) 04:00:09 437.305
HORYU 2 31 May 04:01:36 04:04:22 17° 91° (E) 04:07:16 437.375
JAS-2 31 May 04:05:25 04:09:14 21° 92° (E) 04:13:22 435.910
STARS 31 May 04:09:14 04:13:29 42° 262° (W) 04:17:44 437.465
ISS 31 May 04:16:39 04:19:50 48° 29° (NNE) 04:23:01 145.825
Gurwin Techsat 1B 31 May 04:18:02 04:23:16 57° 288° (WNW) 04:28:28 435.225
Cosmos 2499 31 May 04:26:47 04:30:53 16° 279° (W) 04:34:38 435.465 / 435.565
Oscar 19 31 May 04:31:04 04:33:47 14° 299° (WNW) 04:36:16 437.125/150
AO-7 31 May 04:53:46 05:01:45 47° 100° (E) 05:09:45 29.400- 29.500
ITAMSAT 1 31 May 04:53:49 04:58:12 27° 294° (WNW) 05:02:30 435.822/435.867
PHONESAT 2.4 31 May 05:17:29 05:20:54 54° 192° (SSW) 05:24:18 2401.200-2431.200
MOZHAYETS 4 31 May 05:17:51 05:22:23 64° 259° (W) 05:26:56
VERMONT LUNAR 31 May 05:31:25 05:33:51 19° 206° (SSW) 05:36:13 437.305
CUBESAT XI-V 31 May 05:34:15 05:37:06 17° 65° (ENE) 05:40:06 437.345
HORYU 2 31 May 05:37:03 05:41:19 46° 288° (WNW) 05:45:31 437.375
JAS-2 31 May 05:49:45 05:54:42 46° 289° (WNW) 05:59:51 435.910
ISS 31 May 05:53:31 05:56:03 21° 226° (SW) 05:58:33 145.825
Cosmos 2491 31 May 06:07:43 06:16:11 49° 74° (ENE) 06:24:38 435.465 / 435.565
Cubesat XI-IV 31 May 06:23:41 06:26:46 16° 89° (E) 06:30:07 437.490
PRISM 31 May 06:33:08 06:36:34 27° 69° (ENE) 06:40:05 437.425
M-CUBED/EXP-1 PRIME 31 May 06:38:21 06:41:04 18° 64° (ENE) 06:43:46 437.505
AUBIESAT-1 31 May 06:42:09 06:44:43 17° 63° (ENE) 06:47:16 437.475
AO-7 31 May 06:46:46 06:54:29 42° 299° (WNW) 07:02:06 29.400- 29.500
PHONESAT 2.4 31 May 06:56:02 06:58:38 20° 207° (SSW) 07:01:12 2401.200-2431.200
YUBILEINY 31 May 06:57:59 07:05:54 42° 88° (E) 07:13:57 435.215
STRAND 1 31 May 07:04:56 07:09:55 58° 72° (ENE) 07:14:57 437.568
CUBESAT XI-V 31 May 07:09:39 07:14:09 53° 261° (W) 07:18:43 437.345
AIST 1 31 May 07:15:21 07:19:20 33° 75° (ENE) 07:23:22
RS-15 31 May 07:22:06 07:29:58 25° 104° (ESE) 07:38:27 29.354- 29.394
CUTE-I 31 May 07:39:58 07:45:23 79° 103° (ESE) 07:50:46 437.470
PCSat 31 May 07:43:41 07:46:10 13° 36° (NE) 07:48:52 145.827
Cubesat XI-IV 31 May 08:02:07 08:07:27 67° 287° (WNW) 08:12:47 437.490
Cosmos 2491 31 May 08:04:57 08:12:54 38° 273° (W) 08:20:38 435.465 / 435.565
PRISM 31 May 08:08:38 08:12:01 24° 265° (W) 08:15:21 437.425
BRITE-PL 31 May 08:09:24 08:12:58 18° 87° (E) 08:16:38 437.365/2234.400
M-CUBED/EXP-1 PRIME 31 May 08:11:59 08:15:47 36° 256° (WSW) 08:19:18 437.505
AUBIESAT-1 31 May 08:15:34 08:19:20 37° 256° (WSW) 08:22:51 437.475
CANX-2 31 May 08:40:49 08:41:21 10° 87° (E) 08:42:08 2200.000
STRAND 1 31 May 08:46:14 08:49:35 17° 270° (W) 08:52:44 437.568
AIST 1 31 May 08:53:28 08:56:49 21° 271° (W) 09:00:02
YUBILEINY 31 May 08:54:27 09:02:45 44° 288° (WNW) 09:10:57 435.215
SEEDS 31 May 08:57:44 08:59:17 12° 88° (E) 09:01:03 437.485
Cosmos 2504 31 May 09:01:31 09:07:39 25° 85° (E) 09:13:45 435.465 / 435.565
COMPASS 1 31 May 09:03:40 09:04:43 11° 88° (E) 09:06:00 437.405
AAUSAT CUBESAT 2 31 May 09:11:24 09:12:43 12° 88° (E) 09:14:17 437.432
CUTE-I 31 May 09:21:45 09:24:52 15° 299° (WNW) 09:27:46 437.470
GOMX 1 31 May 09:24:37 09:29:50 55° 98° (E) 09:34:42 467.674
PCSat 31 May 09:25:21 09:30:46 65° 57° (ENE) 09:36:09 145.827
RS-15 31 May 09:30:12 09:41:07 84° 303° (WNW) 09:52:25 29.354- 29.394
ANTELSAT 31 May 09:35:04 09:36:46 12° 63° (ENE) 09:38:41 437.575/2403.000
BRITE-PL 31 May 09:46:30 09:52:03 63° 287° (WNW) 09:57:15 437.365/2234.400
HO-68 31 May 09:56:08 10:03:16 66° 103° (ESE) 10:10:22 435.675
FUNcube-1 31 May 10:01:29 10:01:56 10° 87° (E) 10:02:37 145.935
DOVE 4 31 May 10:02:07 10:07:11 83° 103° (ESE) 10:11:55 437.250
UWE-3 31 May 10:02:49 10:05:13 15° 89° (E) 10:07:46 435.000/436.395/437.385
TIGRISAT 31 May 10:03:31 10:07:05 23° 67° (ENE) 10:10:41 435.000
QB50P2 31 May 10:12:12 10:13:56 13° 63° (ENE) 10:15:52 145.880/145.840
CANX-2 31 May 10:13:37 10:17:49 67° 285° (WNW) 10:22:00 2200.000
CUTE 1.7 + AOD 2 31 May 10:16:25 10:20:37 69° 285° (WNW) 10:24:47 437.475
DUCHIFAT 1 31 May 10:20:30 10:22:45 14° 64° (ENE) 10:25:11 145.980
POPSAT HIP 1 31 May 10:22:23 10:24:52 16° 65° (ENE) 10:27:30 437.405
BUGSAT 1 31 May 10:23:27 10:23:58 10° 62° (ENE) 10:24:42 437.445
UNISAT 6 31 May 10:25:18 10:29:34 37° 71° (ENE) 10:33:51 437.425
SEEDS 31 May 10:31:24 10:35:31 56° 286° (WNW) 10:39:36 437.485
SO-50 31 May 10:31:43 10:36:08 31° 45° (NE) 10:40:33 436.795
UKube-1 31 May 10:35:19 10:36:14 11° 88° (E) 10:37:27 .
COMPASS 1 31 May 10:36:46 10:40:52 61° 285° (WNW) 10:44:57 437.405
DELFI C3 31 May 10:39:30 10:43:15 37° 97° (E) 10:47:00 145.870
ZACube-1 31 May 10:41:23 10:45:10 31° 95° (E) 10:48:55 437.345
CINEMA 3 31 May 10:41:52 10:46:32 79° 284° (WNW) 10:50:57 145.822/145.860
Oscar 11 31 May 10:42:19 10:46:34 57° 100° (E) 10:50:48 145.826/435.025
AAUSAT CUBESAT 2 31 May 10:44:42 10:48:47 58° 286° (WNW) 10:52:50 437.432
DX 1 31 May 10:49:38 10:52:33 18° 92° (E) 10:55:36 434.975-435.025
Cosmos 2504 31 May 10:52:24 11:00:34 64° 281° (WNW) 11:08:10 435.465 / 435.565
CUBEBUG 2 31 May 11:00:47 11:05:13 84° 102° (ESE) 11:09:28 437.445
GOMX 1 31 May 11:03:40 11:07:29 20° 296° (WNW) 11:11:02 467.674
QB50P1 31 May 11:04:05 11:08:07 42° 71° (ENE) 11:12:11 145.935-145.965
ANTELSAT 31 May 11:08:20 11:13:01 79° 258° (WSW) 11:17:38 437.575/2403.000
POLYITAN 1 31 May 11:08:43 11:12:51 48° 73° (ENE) 11:17:03 437.675
PCSat 31 May 11:10:03 11:13:43 18° 254° (WSW) 11:17:09 145.827
50 SAT 31 May 11:19:59 11:22:45 19° 93° (E) 11:25:36 437.505
VELOX 1 31 May 11:22:26 11:25:45 21° 92° (E) 11:29:10 145.980
HUMSAT D 31 May 11:31:14 11:35:16 49° 99° (E) 11:39:15 437.325/437.525
GONETS M04 31 May 11:32:18 11:36:05 14° 76° (ENE) 11:40:30
NANOSAT C BR1 31 May 11:33:17 11:37:34 88° 77° (ENE) 11:41:53 145.865
FUNcube-1 31 May 11:34:35 11:38:51 67° 285° (WNW) 11:43:00 145.935
UWE-3 31 May 11:37:57 11:42:08 47° 287° (WNW) 11:46:11 435.000/436.395/437.385
TIGRISAT 31 May 11:39:14 11:43:37 39° 263° (W) 11:47:56 435.000
DOVE 4 31 May 11:41:57 11:44:12 13° 300° (WNW) 11:46:11 437.250
ESTCUBE 1 31 May 11:44:25 11:47:52 22° 93° (E) 11:51:26 437.505/2401.250
HO-68 31 May 11:44:46 11:50:31 26° 301° (WNW) 11:56:03 435.675
QB50P2 31 May 11:45:04 11:49:21 66° 260° (W) 11:53:38 145.880/145.840
RS-15 31 May 11:45:55 11:55:29 32° 332° (NNW) 12:05:12 29.354- 29.394
CUSAT 1 31 May 11:53:33 11:59:53 29° 85° (E) 12:06:48 437.405
DUCHIFAT 1 31 May 11:53:57 11:58:10 55° 260° (W) 12:02:24 145.980
BUGSAT 1 31 May 11:54:40 11:58:50 79° 257° (WSW) 12:03:06 437.445
AISAT 31 May 11:55:10 11:59:30 47° 99° (E) 12:03:50 437.250
POPSAT HIP 1 31 May 11:56:10 12:00:22 51° 261° (W) 12:04:35 437.405
DANDE 31 May 11:56:14 12:01:57 24° 83° (E) 12:08:25 436.750
UNISAT 6 31 May 12:02:46 12:06:28 22° 267° (W) 12:10:03 437.425
UKube-1 31 May 12:08:35 12:12:56 69° 286° (WNW) 12:17:16 .
SO-50 31 May 12:12:10 12:16:47 38° 244° (WSW) 12:21:16 436.795
DELFI C3 31 May 12:15:20 12:18:07 18° 293° (WNW) 12:20:46 145.870
ZACube-1 31 May 12:17:58 12:21:25 23° 292° (WNW) 12:24:41 437.345
Oscar 11 31 May 12:20:00 12:22:19 14° 296° (WNW) 12:24:28 145.826/435.025
DX 1 31 May 12:24:52 12:29:03 43° 289° (WNW) 12:33:11 434.975-435.025
Oscar 19 31 May 12:30:19 12:33:22 16° 62° (ENE) 12:36:37 437.125/150
CUBEBUG 2 31 May 12:40:47 12:41:15 10° 299° (WNW) 12:41:29 437.445
QB50P1 31 May 12:41:16 12:44:13 17° 269° (W) 12:47:01 145.935-145.965
CUBEBUG 1 31 May 12:41:52 12:46:20 78° 103° (ESE) 12:50:46 437.445
POLYITAN 1 31 May 12:46:26 12:49:05 15° 270° (W) 12:51:34 437.675
Cosmos 2504 31 May 12:52:59 12:55:44 11° 304° (NW) 12:57:51 435.465 / 435.565
50 SAT 31 May 12:54:07 12:57:33 30° 289° (WNW) 13:00:53 437.505
